User: anonymous   Login
Location: Dąbrówka
(52.2799°N, 15.8070°E)
Time: 19:46:32
(UTC+02:00)
Language:

PicSat - Orbit

View from above orbital plane
View from above orbital plane
View from above satellite
View from above satellite

Ground track
Ground track

The orbit data is extracted from the following two-line orbital elements,

1 43131U 18004W   19175.19273933  .00001138  00000-0  49774-4 0  9993
2 43131  97.4887 243.2315 0008159 226.8944 133.1611 15.24117480 80350
Epoch (UTC): 24 June 2019 04:37:32
Eccentricity: 0.0008159
inclination: 97.4887°
perigee height: 488 km
apogee height: 499 km
right ascension of ascending node: 243.2315°
argument of perigee: 226.8944°
revolutions per day: 15.24117480
mean anomaly at epoch: 133.1611°
orbit number at epoch: 8035

The dashed part of the orbit path shows where the satellite is in the earth's shadow,  

DLR